Orbital Elements at Epoch 2459200.5 (2020-Dec-17.0) TDB
Reference: JPL 38 (heliocentric ecliptic J2000)
Element | Value | Uncertainty (1-sigma) | Units |
e | .03586098762012885 | 3.5859e-08 | |
a | 2.837033544171921 | 1.3464e-08 | au |
q | 2.735294719366482 | 1.039e-07 | au |
i | 1.613001450845028 | 4.4191e-06 | deg |
node | 192.9418549236242 | 0.00013527 | deg |
peri | 285.6575909832397 | 0.00014935 | deg |
M | 45.35359637703676 | 6.2592e-05 | deg |
tp | 2458980.610565171547 (2020-May-11.11056517) | 0.00030333 | TDB |
period | 1745.40064871952 4.78 | 1.2425e-05 3.402e-08 | d yr |
n | .2062563688538257 | 1.4683e-09 | deg/d |
Q | 2.93877236897736 | 1.3947e-08 | au |
|
| | Orbit Determination Parameters
Additional Information
|